Stations météo

réclame
Mon MeteoGroup
Dinard, France (7125): Température de l'air & dewpoint: 10.06.2019 03:00:00 - 16.06.2019 03:00:00 (CEST)Dinard, France (7125): Température de l'air 5cm: 10.06.2019 03:00:00 - 16.06.2019 03:00:00 (CEST)Dinard, France (7125): Température de l'air -20cm: 10.06.2019 03:00:00 - 16.06.2019 03:00:00 (CEST)Dinard, France (7125): Vitesse du vent & gusts: 10.06.2019 03:00:00 - 16.06.2019 03:00:00 (CEST)Dinard, France (7125): Direction du vent: 10.06.2019 03:00:00 - 16.06.2019 03:00:00 (CEST)Dinard, France (7125): reduced air pressure: 10.06.2019 03:00:00 - 16.06.2019 03:00:00 (CEST)Dinard, France (7125): visibility: 10.06.2019 03:00:00 - 16.06.2019 03:00:00 (CEST)Dinard, France (7125): Ensoleillement: 10.06.2019 03:00:00 - 16.06.2019 03:00:00 (CEST)Dinard, France (7125): Quantités de précipitations: 10.06.2019 03:00:00 - 16.06.2019 03:00:00 (CEST)
Date & Time tt [°C] td [°C] tt 5cm [°C] tt -20cm [°C] ff [km/h] ff [knt] fx [km/h] fx [knt] dd ppp [hPa] vv [km] sd [min] rr [mm]
16.06.2019 03:00:00 13,8 12,0 13,0 16,5 12 6 22 12 SW 1018,5 35 0 0,0
16.06.2019 02:00:00 13,7 12,1 13,0 16,6 14 8 26 14 SW 1018,2 30 0 0,0
16.06.2019 01:00:00 13,6 12,0 12,7 16,8 14 8 28 15 SSW 1017,9 36 0 0,0
16.06.2019 00:00:00 14,1 12,3 13,4 16,9 17 9 34 19 SSW 1017,6 32 0 0,0
15.06.2019 23:00:00 14,7 12,9 13,8 16,9 23 12 36 20 SW 1017,3 12 0 0,0
15.06.2019 22:00:00 14,9 12,9 14,0 16,9 22 12 43 23 SSW 1016,4 16 0 0,2
15.06.2019 21:00:00 15,7 13,0 15,5 16,9 23 12 44 24 SSW 1016,1 43 13 0,0
15.06.2019 20:00:00 16,9 13,2 17,2 16,8 27 14 45 25 SSW 1015,6 31 47 0,0
15.06.2019 19:00:00 17,0 14,5 15,0 16,6 24 13 45 24 SW 1015,3 17 26 2,0
15.06.2019 18:00:00 17,8 13,5 17,8 16,4 26 14 50 27 SSW 1015,3 20 27 0,0
15.06.2019 17:00:00 17,2 14,1 15,3 16,3 28 15 48 26 SSW 1015,2 19 15 0,2
15.06.2019 16:00:00 16,6 13,7 14,8 16,2 26 14 58 31 SSW 1015,0 17 2 0,2
15.06.2019 15:00:00 16,6 12,7 16,1 16,0 23 12 41 22 S 1014,9 37 2 0,0
15.06.2019 14:00:00 16,7 12,6 16,6 15,9 27 14 50 27 SSW 1015,2 7 6 0,0
15.06.2019 13:00:00 16,0 12,4 13,8 15,8 23 12 46 25 SSW 1015,1 58 2 0,0
15.06.2019 12:00:00 15,5 11,3 14,7 15,7 22 12 49 26 SSW 1014,9 20 0 0,0
15.06.2019 11:00:00 15,4 10,4 15,1 15,7 24 13 41 22 SSW 1014,7 44 1 0,0
15.06.2019 10:00:00 14,8 10,6 15,3 15,7 25 14 42 23 SSW 1014,4 32 20 0,0
15.06.2019 09:00:00 14,6 11,0 13,6 15,8 23 12 38 20 SSW 1014,2 35 57 0,0
15.06.2019 08:00:00 12,8 11,2 11,8 16,0 13 7 23 12 S 1013,9 20 27 0,0
15.06.2019 07:00:00 11,9 10,3 11,4 16,1 13 7 18 10 SSW 1013,8 44 3 0,2
15.06.2019 06:00:00 12,0 10,6 11,3 16,3 13 7 22 12 SSW 1013,6 37 0 0,0
15.06.2019 05:00:00 11,7 10,4 11,2 16,4 13 7 21 11 S 1013,3 18 0 0,0
15.06.2019 04:00:00 11,8 10,2 10,9 16,6 13 7 19 10 S 1013,6 18 0 0,0
15.06.2019 03:00:00 11,3 9,9 10,0 16,8 9 5 13 7 SSW 1013,6 19 0 0,0
15.06.2019 02:00:00 11,0 9,6 8,5 17,0 9 5 14 8 S 1013,7 47 0 0,0
15.06.2019 01:00:00 10,9 9,3 9,3 17,1 9 5 17 9 SW 1013,8 20 0 0,0
15.06.2019 00:00:00 12,1 10,0 10,4 17,3 11 6 18 10 WSW 1013,8 52 0 0,0
14.06.2019 23:00:00 12,7 11,3 10,5 17,3 6 3 10 5 S 1013,5 17 0 0,0
14.06.2019 22:00:00 13,9 12,1 12,3 17,3 3 2 8 5 ESE 1013,0 16 34 0,0
14.06.2019 21:00:00 14,7 11,5 14,6 17,2 8 4 21 12 NE 1012,6 20 35 0,0
14.06.2019 20:00:00 16,4 11,3 17,7 17,1 15 8 31 17 N 1012,4 20 24 0,0
14.06.2019 19:00:00 17,8 10,4 20,9 16,8 16 9 29 16 NW 1011,9 47 44 0,0
14.06.2019 18:00:00 17,9 11,2 19,8 16,6 11 6 39 21 N 1012,0 48 22 0,0
14.06.2019 17:00:00 19,0 10,8 18,9 16,4 8 4 26 14 W 1011,9 57 7 0,0
14.06.2019 16:00:00 18,0 11,5 14,9 16,2 10 6 22 12 SSW 1012,2 60 3 0,0
14.06.2019 15:00:00 18,8 11,4 19,3 16,0 16 9 31 17 SW 1012,4 57 4 0,0
14.06.2019 14:00:00 18,1 10,7 19,3 15,6 18 10 31 17 SSW 1012,4 60 8 0,0
14.06.2019 13:00:00 17,7 10,6 18,8 15,3 16 9 33 18 SSW 1012,4 54 33 0,0
14.06.2019 12:00:00 18,6 11,2 17,5 15,1 20 11 36 20 SSW 1012,5 60 37 0,0
14.06.2019 11:00:00 16,4 10,0 16,9 15,1 19 10 35 19 SW 1012,9 58 49 0,0
14.06.2019 10:00:00 15,8 11,2 14,8 15,1 22 12 35 19 SW 1012,5 42 60 0,0
14.06.2019 09:00:00 13,9 10,7 13,1 15,2 17 9 28 15 SSW 1012,5 40 60 0,0
14.06.2019 08:00:00 12,5 10,4 10,8 15,4 13 7 24 13 SW 1012,4 38 60 0,0
14.06.2019 07:00:00 10,6 9,5 7,8 15,5 13 7 22 12 SSW 1012,1 39 27 0,0
14.06.2019 06:00:00 9,3 8,7 7,6 15,8 9 5 16 9 SSW 1011,7 39 0 0,0
14.06.2019 05:00:00 9,5 8,7 8,2 15,9 9 5 16 9 SSW 1011,7 33 0 0,2
14.06.2019 04:00:00 9,9 8,8 9,0 16,1 10 5 19 10 SW 1011,9 40 0 0,0
14.06.2019 03:00:00 10,3 9,1 8,6 16,3 12 6 21 12 SW 1012,2 47 0 0,0
14.06.2019 02:00:00 9,8 8,6 8,6 16,5 11 6 18 10 S 1012,3 52 0 0,0
14.06.2019 01:00:00 10,9 9,2 9,4 16,7 11 6 15 8 S 1012,0 60 0 0,0
14.06.2019 00:00:00 10,7 8,8 9,1 16,9 10 6 14 8 SSW 1011,8 60 0 0,0
13.06.2019 23:00:00 11,8 9,0 10,2 17,0 10 5 17 9 SSW 1011,8 45 0 0,0
13.06.2019 22:00:00 13,5 9,3 12,5 17,1 11 6 26 14 SSW 1011,0 60 0 0,0
13.06.2019 21:00:00 15,4 9,7 15,2 17,1 18 10 29 15 SW 1010,8 60 0 0,0
13.06.2019 20:00:00 16,1 10,0 16,3 17,0 16 8 31 17 SW 1010,5 60 0 0,0
13.06.2019 19:00:00 16,8 9,2 17,6 16,9 20 11 34 19 W 1010,1 55 1 0,0
13.06.2019 18:00:00 16,9 9,6 18,3 16,7 22 12 42 23 SW 1010,0 54 43 0,0
13.06.2019 17:00:00 17,5 8,6 16,2 16,5 22 12 50 27 SW 1009,8 44 20 0,0
13.06.2019 16:00:00 16,0 10,1 16,1 16,2 13 7 35 19 SW 1010,0 60 18 0,0
13.06.2019 15:00:00 17,2 11,2 16,4 16,0 19 11 35 19 SSW 1009,7 60 27 0,0
13.06.2019 14:00:00 15,3 9,9 15,1 15,9 21 12 34 19 SW 1009,9 56 7 0,0
13.06.2019 13:00:00 14,8 9,4 13,1 15,7 22 12 38 21 SW 1009,9 51 15 0,0
13.06.2019 12:00:00 14,6 9,8 16,1 15,7 21 12 34 19 SW 1009,8 52 11 0,0
13.06.2019 11:00:00 14,0 10,2 13,9 15,6 21 11 33 18 SW 1009,6 50 0 0,0
13.06.2019 10:00:00 12,7 9,9 12,9 15,7 16 9 31 17 SW 1009,8 28 0 0,0
13.06.2019 09:00:00 12,0 9,6 11,2 15,8 16 9 27 14 SW 1009,5 20 10 0,0
13.06.2019 08:00:00 11,0 9,6 10,4 16,0 16 9 29 16 SW 1009,2 19 39 0,0
13.06.2019 07:00:00 10,3 9,5 9,9 16,1 12 7 20 11 SSW 1009,0 13 3 0,0
13.06.2019 06:00:00 10,5 9,9 9,9 16,3 12 6 22 12 SSW 1008,9 12 0 0,0
13.06.2019 05:00:00 10,3 9,8 10,1 16,4 8 4 13 7 S 1008,9 9 0 0,0
13.06.2019 04:00:00 10,3 9,8 9,3 16,6 9 5 16 9 S 1009,3 8 0 0,2
13.06.2019 03:00:00 10,0 9,4 9,2 16,8 11 6 16 8 S 1009,8 6 0 0,0
13.06.2019 02:00:00 11,2 10,4 10,8 17,0 5 3 11 6 S 1010,2 8 0 0,0
13.06.2019 01:00:00 11,0 10,4 9,6 17,2 7 4 10 5 SSW 1010,3 9 0 0,0
13.06.2019 00:00:00 10,4 9,3 9,6 17,3 8 5 10 6 SSW 1010,4 8 0 0,0
12.06.2019 23:00:00 11,5 10,1 10,3 17,4 7 4 12 6 WSW 1010,3 22 0 0,0
12.06.2019 22:00:00 12,7 10,9 12,6 17,4 8 5 16 9 WNW 1009,8 28 25 0,0
12.06.2019 21:00:00 14,1 11,1 14,4 17,3 10 5 25 14 WNW 1009,4 32 51 0,0
12.06.2019 20:00:00 14,9 10,9 17,3 17,2 18 10 30 16 NW 1009,3 42 53 0,0
12.06.2019 19:00:00 15,5 11,1 17,2 17,0 16 8 26 14 NNW 1009,1 20 18 0,0
12.06.2019 18:00:00 15,3 11,5 17,3 16,8 17 9 31 17 NNW 1009,1 43 26 0,0
12.06.2019 17:00:00 15,4 11,6 15,8 16,6 19 11 30 16 NNW 1008,9 60 9 0,0
12.06.2019 16:00:00 14,3 10,7 16,2 16,4 19 10 27 14 NNW 1008,7 52 0 0,0
12.06.2019 15:00:00 14,6 10,4 17,3 16,2 18 10 29 16 N 1008,5 54 0 0,0
12.06.2019 14:00:00 15,4 10,6 15,3 16,0 14 8 26 14 N 1008,4 56 13 0,0
12.06.2019 13:00:00 15,4 11,2 14,1 15,9 14 8 25 14 N 1008,1 60 17 0,2
12.06.2019 12:00:00 13,8 10,4 14,7 15,7 14 7 21 11 NNE 1008,4 59 0 0,0
12.06.2019 11:00:00 13,7 10,1 14,9 15,6 10 6 22 12 NNE 1008,3 58 28 0,0
12.06.2019 10:00:00 13,4 10,6 13,3 15,7 8 4 22 12 NNE 1008,5 46 0 0,0
12.06.2019 09:00:00 12,6 10,5 12,7 15,7 10 5 19 11 NE 1008,6 58 0 0,0
12.06.2019 08:00:00 12,2 10,4 10,8 15,9 10 6 16 9 NE 1008,7 51 15 0,0
12.06.2019 07:00:00 11,4 10,0 9,5 16,0 7 4 11 6 ENE 1008,6 45 20 0,0
12.06.2019 06:00:00 11,3 10,0 9,9 16,1 7 4 16 8 NE 1008,6 38 0 0,0
12.06.2019 05:00:00 11,7 10,4 10,8 16,2 11 6 18 10 NNE 1008,7 34 0 0,0
12.06.2019 04:00:00 11,4 10,1 10,5 16,4 12 6 18 10 NNE 1009,1 39 0 0,0
12.06.2019 03:00:00 11,4 10,1 10,9 16,6 7 4 18 10 NNE 1009,5 19 0 0,4
12.06.2019 02:00:00 12,0 10,4 10,6 16,7 12 7 20 11 ENE 1009,8 14 0 0,0
12.06.2019 01:00:00 11,2 10,1 9,2 16,9 10 5 17 9 NNE 1010,3 20 0 0,0
12.06.2019 00:00:00 10,5 9,6 9,0 17,0 6 3 9 5 N 1010,5 60 0 0,0
11.06.2019 23:00:00 10,3 9,4 9,4 17,2 7 4 9 5 N 1010,6 59 0 0,0
11.06.2019 22:00:00 11,3 9,7 10,5 17,2 5 3 42 23 WNW 1010,3 60 1 1,2
11.06.2019 21:00:00 14,3 10,7 14,0 17,2 13 7 25 13 NNE 1010,1 47 32 0,0
11.06.2019 20:00:00 14,1 11,3 13,7 17,1 12 7 26 14 N 1009,9 56 23 0,0
11.06.2019 19:00:00 12,9 9,9 13,8 17,1 12 6 19 10 NNE 1009,8 53 1 0,0
11.06.2019 18:00:00 12,8 10,7 12,1 16,9 11 6 27 15 NE 1010,1 49 13 1,4
11.06.2019 17:00:00 15,2 8,9 17,9 16,6 11 6 28 15 S 1009,8 60 14 0,0
11.06.2019 16:00:00 15,2 8,7 18,9 16,2 14 8 27 15 SSE 1009,6 56 18 0,0
11.06.2019 15:00:00 15,2 10,0 14,6 16,0 17 9 34 18 S 1009,4 43 42 0,0
11.06.2019 14:00:00 12,8 10,2 13,1 15,8 16 9 27 14 S 1009,6 35 10 0,0
11.06.2019 13:00:00 12,4 9,9 13,5 15,7 14 8 23 13 S 1009,6 20 15 0,2
11.06.2019 12:00:00 13,1 10,6 12,6 15,7 14 8 24 13 S 1009,6 21 37 0,0
11.06.2019 11:00:00 11,2 10,3 10,6 15,7 13 7 20 11 S 1009,8 18 0 0,8
11.06.2019 10:00:00 10,2 9,6 10,1 15,9 13 7 23 13 SW 1010,2 10 0 1,6
11.06.2019 09:00:00 9,9 9,3 9,9 16,1 15 8 22 12 SW 1010,2 8 0 1,0
11.06.2019 08:00:00 9,8 9,3 9,7 16,2 13 7 21 12 SW 1010,6 13 0 0,2
11.06.2019 07:00:00 9,8 9,3 9,8 16,4 12 7 18 10 WSW 1010,9 13 5 0,8
11.06.2019 06:00:00 9,8 9,3 9,7 16,6 10 6 19 10 WSW 1011,2 3,1 0 1,6
11.06.2019 05:00:00 9,7 9,1 9,6 16,9 5 3 14 8 SW 1011,7 3,8 0 1,6
11.06.2019 04:00:00 9,7 8,6 9,5 17,1 10 5 14 8 SW 1012,3 20 0 0,0
11.06.2019 03:00:00 9,5 8,6 8,7 17,3 9 5 11 6 SW 1012,8 28 0 0,0
11.06.2019 02:00:00 9,4 8,5 8,3 17,6 6 4 10 5 SW 1013,6 26 0 0,0
11.06.2019 01:00:00 9,4 8,5 7,5 17,9 8 4 10 5 SW 1014,2 28 0 0,0
11.06.2019 00:00:00 9,8 8,2 8,0 18,1 7 4 16 9 WSW 1014,7 42 0 0,0
10.06.2019 23:00:00 10,6 8,0 9,4 18,3 9 5 17 9 WNW 1014,9 57 0 0,0
10.06.2019 22:00:00 11,6 7,9 10,9 18,4 10 6 27 15 NW 1014,5 60 41 0,0
10.06.2019 21:00:00 13,3 8,8 14,8 18,4 19 11 30 16 NNW 1014,6 53 58 0,0
10.06.2019 20:00:00 13,2 9,3 14,7 18,3 18 10 29 16 NNW 1014,7 57 31 0,0
10.06.2019 19:00:00 14,5 8,4 18,5 18,1 16 8 26 14 NNW 1014,8 51 49 0,0
10.06.2019 18:00:00 14,6 8,3 17,7 17,8 12 7 29 16 NW 1015,0 57 35 0,0
10.06.2019 17:00:00 14,5 8,4 18,5 17,3 18 10 28 15 NNW 1015,2 41 46 0,0
10.06.2019 16:00:00 15,6 9,3 22,4 16,9 17 9 34 18 NNW 1015,4 43 57 0,0
10.06.2019 15:00:00 15,6 9,5 15,5 16,4 14 8 22 12 N 1015,8 52 16 0,0
10.06.2019 14:00:00 14,5 7,5 17,3 16,0 13 7 25 14 WNW 1016,3 56 46 0,2
10.06.2019 13:00:00 15,2 8,4 17,8 15,7 10 5 21 11 NW 1016,5 50 54 0,0
10.06.2019 12:00:00 13,6 9,4 13,7 15,6 12 6 21 11 NW 1016,9 55 8 0,0
10.06.2019 11:00:00 12,2 9,6 12,4 15,6 11 6 19 10 WNW 1017,1 59 0 0,0
10.06.2019 10:00:00 11,9 10,3 11,6 15,7 12 6 19 11 WNW 1017,3 41 0 0,0
10.06.2019 09:00:00 11,2 10,3 10,7 15,7 8 4 16 8 W 1017,4 14 0 0,8
10.06.2019 08:00:00 10,9 10,0 10,4 15,9 10 5 16 9 W 1017,4 20 6 0,0
10.06.2019 07:00:00 10,6 9,4 10,5 16,0 3 2 10 5 NW 1017,6 19 0 0,0
10.06.2019 06:00:00 10,7 9,9 10,6 16,1 8 4 15 8 NNW 1017,8 20 0 0,4
10.06.2019 05:00:00 10,7 9,9 10,6 16,2 6 4 19 10 WNW 1018,0 17 0 0,2
10.06.2019 04:00:00 11,1 10,3 10,9 16,4 8 5 14 7 WNW 1018,4 11 0 1,2
10.06.2019 03:00:00 11,3 10,7 11,3 16,5 8 4 16 8 WNW 1018,8 13 0 0,0

tt = Température de l'air
td = dewpoint
tt 5cm = Température de l'air 5cm
tt -20cm = Température de l'air -20cm
ff = Vitesse du vent
fx = gusts
dd = Direction du vent
ppp = reduced air pressure
vv = visibility
sd = Ensoleillement
rr = Quantités de précipitations

stations d'obs. à proximité